2024-170A

Last updated on Mon Oct 21 2024 00:02:04 GMT+0000 (Coordinated Universal Time)

1 61195U 24170A 24294.56299316 .00001102 00000+0 65400-3 0 9999 2 61195 44.8577 321.9771 0006015 78.2815 281.8696 14.13234171 4250
UTC large
Height (km)
Speed (km/s)
/
Latitude / Longitude
Inclination (degrees)
Orbital Period (minutes)
Azimuth
Elevation
Range (km)
Doppler Factor

Next 0 passes for location: London (51.5072 / 0.1276)

Sorry there are no passes over London.
2024-170A